Starlink 30564

operational
NORAD ID: 58043 Int'l Des: 2023-156 Owner: SPXS Country: US Constellation: starlink
LEOCIRCULAR

About Starlink 30564

Description loading...

Live Position

Loading 3D Globe...

Upcoming Passes

Altitude History

Altitude vs Time

uPlot chart will show altitude changes over time

Two-Line Element Set

1 58043U 23156R 25352.31863183 .00133930 00000-0 44445-2 0 9999
2 58043 53.1575 96.4501 0001937 54.0808 306.0372 15.30262883123856
Epoch: Dec 18, 2025 • Age: 6 hours

Current Status

Altitude 484.1 km
Velocity 7.62 km/s
Sub-Earth Point -27.15°S, 11.17°E
Launch Date Oct 9, 2023
Age 2.1 years
Type internet

Technical Details

Classification Payload
Mass 730.00 kg
Dry Mass 700.00 kg
Total Mass 730.00 kg
Length 0.30 m
Diameter 4.10 m
Span 29.00 m
Shape Box + pan
Manufacturer SPXS
Bus Type Starlink V2M
Phase Status In Orbit
Owner/State SPXS/US

Large Constellations

Loading constellations...